Time,TemperatureF,DewpointF,PressureIn,WindDirection,WindDirectionDegrees,WindSpeedMPH,WindSpeedGustMPH,Humidity,HourlyPrecipIn,Conditions,Clouds,dailyrainin,SoftwareType,DateUTC
2013-07-23 00:02:00,80.8,74.8,29.92,South,191,2.0,7.0,82,0.00,,,0.00,WeatherTracker,2013-07-23 05:02:00,
2013-07-23 00:08:00,80.7,74.7,29.92,East,98,0.0,7.0,82,0.00,,,0.00,WeatherTracker,2013-07-23 05:08:00,
2013-07-23 00:13:00,80.7,74.7,29.93,SE,145,4.0,7.0,82,0.00,,,0.00,WeatherTracker,2013-07-23 05:13:00,
2013-07-23 00:18:00,80.6,74.9,29.92,ENE,69,1.0,5.0,83,0.00,,,0.00,WeatherTracker,2013-07-23 05:18:00,
2013-07-23 00:23:00,80.5,74.8,29.93,SE,132,0.0,7.0,83,0.00,,,0.00,WeatherTracker,2013-07-23 05:23:00,
2013-07-23 00:28:00,80.4,74.7,29.92,SE,145,1.0,7.0,83,0.00,,,0.00,WeatherTracker,2013-07-23 05:28:00,
2013-07-23 00:33:00,80.3,74.7,29.93,SE,136,5.0,6.0,83,0.00,,,0.00,WeatherTracker,2013-07-23 05:33:00,
2013-07-23 00:38:00,80.2,74.9,29.92,WSW,253,1.0,6.0,84,0.00,,,0.00,WeatherTracker,2013-07-23 05:38:00,
2013-07-23 00:43:00,80.1,74.8,29.92,SSE,158,3.0,6.0,84,0.00,,,0.00,WeatherTracker,2013-07-23 05:43:00,
2013-07-23 00:48:00,80.1,74.8,29.92,SSE,158,1.0,5.0,84,0.00,,,0.00,WeatherTracker,2013-07-23 05:48:00,
2013-07-23 00:53:00,79.9,74.6,29.92,SSW,208,1.0,7.0,84,0.00,,,0.00,WeatherTracker,2013-07-23 05:53:00,
2013-07-23 00:58:00,79.9,75.0,29.92,SE,136,2.0,7.0,85,0.00,,,0.00,WeatherTracker,2013-07-23 05:58:00,
2013-07-23 01:03:00,79.8,74.9,29.92,East,92,1.0,6.0,85,0.00,,,0.00,WeatherTracker,2013-07-23 06:03:00,
2013-07-23 01:08:00,79.7,74.8,29.92,SE,140,4.0,7.0,85,0.00,,,0.00,WeatherTracker,2013-07-23 06:08:00,
2013-07-23 01:13:00,79.6,74.7,29.92,NNE,27,1.0,7.0,85,0.00,,,0.00,WeatherTracker,2013-07-23 06:13:00,
2013-07-23 01:18:00,79.6,74.7,29.92,NNE,26,0.0,7.0,85,0.00,,,0.00,WeatherTracker,2013-07-23 06:18:00,
2013-07-23 01:23:00,79.5,74.9,29.92,WNW,288,0.0,7.0,86,0.00,,,0.00,WeatherTracker,2013-07-23 06:23:00,
2013-07-23 01:28:00,79.5,74.9,29.92,WNW,298,0.0,7.0,86,0.00,,,0.00,WeatherTracker,2013-07-23 06:28:00,
2013-07-23 01:33:00,79.4,74.8,29.92,West,271,0.0,7.0,86,0.00,,,0.00,WeatherTracker,2013-07-23 06:33:00,
2013-07-23 01:39:00,79.4,74.8,29.92,SSW,201,0.0,3.0,86,0.00,,,0.00,WeatherTracker,2013-07-23 06:39:00,
2013-07-23 01:44:00,79.4,74.8,29.92,WSW,256,0.0,3.0,86,0.00,,,0.00,WeatherTracker,2013-07-23 06:44:00,
2013-07-23 01:49:00,79.3,74.7,29.92,WSW,242,0.0,9.0,86,0.00,,,0.00,WeatherTracker,2013-07-23 06:49:00,
2013-07-23 01:54:00,79.3,74.7,29.92,West,274,0.0,9.0,86,0.00,,,0.00,WeatherTracker,2013-07-23 06:54:00,
2013-07-23 01:59:00,79.3,74.7,29.92,WSW,240,0.0,9.0,86,0.00,,,0.00,WeatherTracker,2013-07-23 06:59:00,
2013-07-23 02:04:00,79.3,74.7,29.92,SSW,197,0.0,7.0,86,0.00,,,0.00,WeatherTracker,2013-07-23 07:04:00,
2013-07-23 02:09:00,79.2,74.6,29.92,ENE,73,1.0,8.0,86,0.00,,,0.00,WeatherTracker,2013-07-23 07:09:00,
2013-07-23 02:14:00,79.3,74.7,29.92,SSW,211,0.0,8.0,86,0.00,,,0.00,WeatherTracker,2013-07-23 07:14:00,
2013-07-23 02:19:00,79.2,74.6,29.92,East,79,0.0,3.0,86,0.00,,,0.00,WeatherTracker,2013-07-23 07:19:00,
2013-07-23 02:24:00,79.2,74.6,29.92,SW,215,0.0,4.0,86,0.00,,,0.00,WeatherTracker,2013-07-23 07:24:00,
2013-07-23 02:29:00,79.2,74.6,29.92,West,270,0.0,6.0,86,0.00,,,0.00,WeatherTracker,2013-07-23 07:29:00,
2013-07-23 02:34:00,79.1,74.5,29.92,ESE,105,0.0,6.0,86,0.00,,,0.00,WeatherTracker,2013-07-23 07:34:00,
2013-07-23 02:39:00,79.1,74.5,29.92,NE,48,0.0,3.0,86,0.00,,,0.00,WeatherTracker,2013-07-23 07:39:00,
2013-07-23 02:44:00,79.0,74.4,29.91,SW,233,1.0,3.0,86,0.00,,,0.00,WeatherTracker,2013-07-23 07:44:00,
2013-07-23 02:49:00,79.0,74.4,29.91,NW,311,0.0,4.0,86,0.00,,,0.00,WeatherTracker,2013-07-23 07:49:00,
2013-07-23 02:54:00,79.0,74.4,29.92,SSE,156,0.0,5.0,86,0.00,,,0.00,WeatherTracker,2013-07-23 07:54:00,
2013-07-23 03:00:00,79.0,74.4,29.91,SSE,165,1.0,6.0,86,0.00,,,0.00,WeatherTracker,2013-07-23 08:00:00,
2013-07-23 03:05:00,78.9,74.3,29.91,East,96,0.0,6.0,86,0.00,,,0.00,WeatherTracker,2013-07-23 08:05:00,
2013-07-23 03:10:00,78.9,74.3,29.91,West,264,2.0,6.0,86,0.00,,,0.00,WeatherTracker,2013-07-23 08:10:00,
2013-07-23 03:15:00,78.8,74.2,29.91,West,269,0.0,7.0,86,0.00,,,0.00,WeatherTracker,2013-07-23 08:15:00,
2013-07-23 03:20:00,78.8,74.2,29.91,West,259,0.0,11.0,86,0.00,,,0.00,WeatherTracker,2013-07-23 08:20:00,
2013-07-23 03:25:00,78.8,74.2,29.91,South,173,1.0,11.0,86,0.00,,,0.00,WeatherTracker,2013-07-23 08:25:00,
2013-07-23 03:30:00,78.8,74.2,29.91,SW,219,4.0,7.0,86,0.00,,,0.00,WeatherTracker,2013-07-23 08:30:00,
2013-07-23 03:35:00,78.7,74.1,29.91,ESE,115,4.0,6.0,86,0.00,,,0.00,WeatherTracker,2013-07-23 08:35:00,
2013-07-23 03:40:00,78.6,74.0,29.91,NW,309,0.0,6.0,86,0.00,,,0.00,WeatherTracker,2013-07-23 08:40:00,
2013-07-23 03:45:00,78.6,74.0,29.91,West,263,0.0,6.0,86,0.00,,,0.00,WeatherTracker,2013-07-23 08:45:00,
2013-07-23 03:50:00,78.6,74.0,29.91,South,181,1.0,7.0,86,0.00,,,0.00,WeatherTracker,2013-07-23 08:50:00,
2013-07-23 03:55:00,78.5,74.0,29.91,West,270,0.0,7.0,86,0.00,,,0.00,WeatherTracker,2013-07-23 08:55:00,
2013-07-23 04:00:00,78.4,73.9,29.91,West,259,0.0,6.0,86,0.00,,,0.00,WeatherTracker,2013-07-23 09:00:00,
2013-07-23 04:05:00,78.4,73.9,29.91,SSW,212,0.0,6.0,86,0.00,,,0.00,WeatherTracker,2013-07-23 09:05:00,
2013-07-23 04:10:00,78.4,73.9,29.92,SW,233,0.0,6.0,86,0.00,,,0.00,WeatherTracker,2013-07-23 09:10:00,
2013-07-23 04:15:00,78.4,73.9,29.92,South,187,0.0,6.0,86,0.00,,,0.00,WeatherTracker,2013-07-23 09:15:00,
2013-07-23 04:20:00,78.3,73.8,29.92,SW,226,0.0,4.0,86,0.00,,,0.00,WeatherTracker,2013-07-23 09:20:00,
2013-07-23 04:25:00,78.3,73.8,29.92,SW,224,0.0,3.0,86,0.00,,,0.00,WeatherTracker,2013-07-23 09:25:00,
2013-07-23 04:31:00,78.2,73.7,29.92,SSE,158,1.0,6.0,86,0.00,,,0.00,WeatherTracker,2013-07-23 09:31:00,
2013-07-23 04:36:00,78.2,73.7,29.92,SE,141,2.0,6.0,86,0.00,,,0.00,WeatherTracker,2013-07-23 09:36:00,
2013-07-23 04:41:00,78.2,74.0,29.92,SSW,201,0.0,4.0,87,0.00,,,0.00,WeatherTracker,2013-07-23 09:41:00,
2013-07-23 04:46:00,78.1,73.9,29.92,NNE,17,0.0,4.0,87,0.00,,,0.00,WeatherTracker,2013-07-23 09:46:00,
2013-07-23 04:51:00,78.1,73.9,29.92,North,354,0.0,3.0,87,0.00,,,0.00,WeatherTracker,2013-07-23 09:51:00,
2013-07-23 04:56:00,78.0,73.5,29.92,WSW,255,1.0,2.0,86,0.00,,,0.00,WeatherTracker,2013-07-23 09:56:00,
2013-07-23 05:01:00,78.0,73.5,29.92,SSE,149,0.0,7.0,86,0.00,,,0.00,WeatherTracker,2013-07-23 10:01:00,
2013-07-23 05:06:00,78.0,73.5,29.92,SW,233,0.0,7.0,86,0.00,,,0.00,WeatherTracker,2013-07-23 10:06:00,
2013-07-23 05:11:00,77.9,73.7,29.92,SSE,155,4.0,4.0,87,0.00,,,0.00,WeatherTracker,2013-07-23 10:11:00,
2013-07-23 05:16:00,77.9,73.7,29.92,SE,135,0.0,4.0,87,0.00,,,0.00,WeatherTracker,2013-07-23 10:16:00,
2013-07-23 05:21:00,77.8,73.6,29.92,SE,124,0.0,4.0,87,0.00,,,0.00,WeatherTracker,2013-07-23 10:21:00,
2013-07-23 05:26:00,77.7,73.5,29.92,NE,46,0.0,5.0,87,0.00,,,0.00,WeatherTracker,2013-07-23 10:26:00,
2013-07-23 05:31:00,77.7,73.5,29.93,ENE,76,0.0,5.0,87,0.00,,,0.00,WeatherTracker,2013-07-23 10:31:00,
2013-07-23 05:36:00,77.6,73.1,29.93,West,262,1.0,2.0,86,0.00,,,0.00,WeatherTracker,2013-07-23 10:36:00,
2013-07-23 05:41:00,77.6,73.1,29.93,West,266,0.0,5.0,86,0.00,,,0.00,WeatherTracker,2013-07-23 10:41:00,
2013-07-23 05:46:00,77.6,73.4,29.93,SE,125,0.0,5.0,87,0.00,,,0.00,WeatherTracker,2013-07-23 10:46:00,
2013-07-23 05:51:00,77.6,73.4,29.93,SW,236,0.0,1.0,87,0.00,,,0.00,WeatherTracker,2013-07-23 10:51:00,
2013-07-23 05:57:00,77.5,73.3,29.93,SSE,161,3.0,4.0,87,0.00,,,0.00,WeatherTracker,2013-07-23 10:57:00,
2013-07-23 06:02:00,77.5,73.3,29.93,SSE,167,0.0,5.0,87,0.00,,,0.00,WeatherTracker,2013-07-23 11:02:00,
2013-07-23 06:07:00,77.5,73.3,29.93,SSW,210,0.0,5.0,87,0.00,,,0.00,WeatherTracker,2013-07-23 11:07:00,
2013-07-23 06:12:00,77.5,73.3,29.93,WSW,256,0.0,2.0,87,0.00,,,0.00,WeatherTracker,2013-07-23 11:12:00,
2013-07-23 06:17:00,77.4,73.2,29.93,West,259,0.0,3.0,87,0.00,,,0.00,WeatherTracker,2013-07-23 11:17:00,
2013-07-23 06:22:00,77.4,72.9,29.93,SSW,203,0.0,7.0,86,0.00,,,0.00,WeatherTracker,2013-07-23 11:22:00,
2013-07-23 06:27:00,77.4,72.9,29.93,SSW,211,0.0,7.0,86,0.00,,,0.00,WeatherTracker,2013-07-23 11:27:00,
2013-07-23 06:32:00,77.3,72.8,29.93,SW,233,0.0,5.0,86,0.00,,,0.00,WeatherTracker,2013-07-23 11:32:00,
2013-07-23 06:37:00,77.3,72.8,29.94,SW,226,1.0,5.0,86,0.00,,,0.00,WeatherTracker,2013-07-23 11:37:00,
2013-07-23 06:42:00,77.2,72.7,29.94,East,97,1.0,7.0,86,0.00,,,0.00,WeatherTracker,2013-07-23 11:42:00,
2013-07-23 06:47:00,77.3,72.8,29.94,West,262,0.0,7.0,86,0.00,,,0.00,WeatherTracker,2013-07-23 11:47:00,
2013-07-23 06:52:00,77.2,72.7,29.94,East,96,0.0,5.0,86,0.00,,,0.00,WeatherTracker,2013-07-23 11:52:00,
2013-07-23 06:57:00,77.1,72.6,29.94,NE,48,0.0,5.0,86,0.00,,,0.00,WeatherTracker,2013-07-23 11:57:00,
2013-07-23 07:02:00,77.0,72.5,29.94,SW,215,0.0,4.0,86,0.00,,,0.00,WeatherTracker,2013-07-23 12:02:00,
2013-07-23 07:07:00,76.9,72.4,29.94,East,97,0.0,4.0,86,0.00,,,0.00,WeatherTracker,2013-07-23 12:07:00,
2013-07-23 07:12:00,76.9,72.4,29.94,SSW,198,0.0,1.0,86,0.00,,,0.00,WeatherTracker,2013-07-23 12:12:00,
2013-07-23 07:17:00,76.8,72.3,29.94,ESE,122,1.0,7.0,86,0.00,,,0.00,WeatherTracker,2013-07-23 12:17:00,
2013-07-23 07:22:00,76.8,72.3,29.94,West,277,1.0,7.0,86,0.00,,,0.00,WeatherTracker,2013-07-23 12:22:00,
2013-07-23 07:28:00,76.8,72.3,29.94,SW,218,0.0,6.0,86,0.00,,,0.00,WeatherTracker,2013-07-23 12:28:00,
2013-07-23 07:33:00,76.8,72.3,29.94,WSW,258,1.0,6.0,86,0.00,,,0.00,WeatherTracker,2013-07-23 12:33:00,
2013-07-23 07:38:00,76.7,72.2,29.94,WSW,239,2.0,4.0,86,0.00,,,0.00,WeatherTracker,2013-07-23 12:38:00,
2013-07-23 07:43:00,76.6,72.1,29.94,West,275,0.0,3.0,86,0.00,,,0.00,WeatherTracker,2013-07-23 12:43:00,
2013-07-23 07:48:00,76.6,72.1,29.94,WSW,239,0.0,3.0,86,0.00,,,0.00,WeatherTracker,2013-07-23 12:48:00,
2013-07-23 07:53:00,76.6,72.1,29.94,SE,138,0.0,3.0,86,0.00,,,0.00,WeatherTracker,2013-07-23 12:53:00,
2013-07-23 07:58:00,76.6,72.1,29.95,SSE,152,0.0,3.0,86,0.00,,,0.00,WeatherTracker,2013-07-23 12:58:00,
2013-07-23 08:03:00,76.6,72.1,29.95,SW,229,2.0,4.0,86,0.00,,,0.00,WeatherTracker,2013-07-23 13:03:00,
2013-07-23 08:08:00,76.7,72.2,29.95,NE,36,0.0,4.0,86,0.00,,,0.00,WeatherTracker,2013-07-23 13:08:00,
2013-07-23 08:13:00,76.8,72.3,29.95,WNW,283,3.0,3.0,86,0.00,,,0.00,WeatherTracker,2013-07-23 13:13:00,
2013-07-23 08:18:00,76.9,72.0,29.95,SSW,203,0.0,5.0,85,0.00,,,0.00,WeatherTracker,2013-07-23 13:18:00,
2013-07-23 08:23:00,77.0,72.1,29.95,South,177,0.0,5.0,85,0.00,,,0.00,WeatherTracker,2013-07-23 13:23:00,
2013-07-23 08:28:00,77.1,72.2,29.95,NNE,25,0.0,5.0,85,0.00,,,0.00,WeatherTracker,2013-07-23 13:28:00,
2013-07-23 08:33:00,77.3,72.4,29.95,West,266,0.0,6.0,85,0.00,,,0.00,WeatherTracker,2013-07-23 13:33:00,
2013-07-23 08:38:00,77.4,72.2,29.95,WSW,250,0.0,6.0,84,0.00,,,0.00,WeatherTracker,2013-07-23 13:38:00,
2013-07-23 08:43:00,77.5,72.3,29.95,WSW,246,0.0,5.0,84,0.00,,,0.00,WeatherTracker,2013-07-23 13:43:00,
2013-07-23 08:48:00,77.7,72.5,29.95,SW,228,1.0,5.0,84,0.00,,,0.00,WeatherTracker,2013-07-23 13:48:00,
2013-07-23 08:54:00,77.8,72.6,29.96,SSE,162,0.0,1.0,84,0.00,,,0.00,WeatherTracker,2013-07-23 13:54:00,
2013-07-23 08:59:00,78.1,72.5,29.95,WSW,252,0.0,3.0,83,0.00,,,0.00,WeatherTracker,2013-07-23 13:59:00,
2013-07-23 09:04:00,78.7,72.7,29.96,West,264,1.0,5.0,82,0.00,,,0.00,WeatherTracker,2013-07-23 14:04:00,
2013-07-23 09:09:00,79.3,72.9,29.96,SW,226,2.0,9.0,81,0.00,,,0.00,WeatherTracker,2013-07-23 14:09:00,
2013-07-23 09:14:00,80.0,72.9,29.96,ESE,110,4.0,9.0,79,0.00,,,0.00,WeatherTracker,2013-07-23 14:14:00,
2013-07-23 09:19:00,80.1,72.6,29.96,South,180,0.0,7.0,78,0.00,,,0.00,WeatherTracker,2013-07-23 14:19:00,
2013-07-23 09:24:00,80.3,72.4,29.96,NW,312,0.0,7.0,77,0.00,,,0.00,WeatherTracker,2013-07-23 14:24:00,
2013-07-23 09:29:00,80.5,72.6,29.96,SW,229,0.0,5.0,77,0.00,,,0.00,WeatherTracker,2013-07-23 14:29:00,
2013-07-23 09:34:00,81.0,73.1,29.96,WSW,242,0.0,6.0,77,0.00,,,0.00,WeatherTracker,2013-07-23 14:34:00,
2013-07-23 09:39:00,81.2,72.5,29.96,NNE,17,2.0,6.0,75,0.00,,,0.00,WeatherTracker,2013-07-23 14:39:00,
2013-07-23 09:44:00,81.1,72.4,29.96,ESE,109,0.0,3.0,75,0.00,,,0.00,WeatherTracker,2013-07-23 14:44:00,
2013-07-23 09:49:00,81.2,72.9,29.96,NW,316,0.0,3.0,76,0.00,,,0.00,WeatherTracker,2013-07-23 14:49:00,
2013-07-23 09:54:00,81.6,72.9,29.96,WSW,257,0.0,5.0,75,0.00,,,0.00,WeatherTracker,2013-07-23 14:54:00,
2013-07-23 09:59:00,82.4,73.7,29.96,WSW,246,0.0,5.0,75,0.00,,,0.00,WeatherTracker,2013-07-23 14:59:00,
2013-07-23 10:04:00,83.3,73.7,29.96,WSW,253,0.0,4.0,73,0.00,,,0.00,WeatherTracker,2013-07-23 15:04:00,
2013-07-23 10:09:00,83.5,73.5,29.96,WSW,238,1.0,4.0,72,0.00,,,0.00,WeatherTracker,2013-07-23 15:09:00,
2013-07-23 10:15:00,83.6,73.6,29.96,WSW,257,2.0,4.0,72,0.00,,,0.00,WeatherTracker,2013-07-23 15:15:00,
2013-07-23 10:20:00,83.4,73.8,29.96,SSE,159,4.0,4.0,73,0.00,,,0.00,WeatherTracker,2013-07-23 15:20:00,
2013-07-23 10:25:00,84.1,74.1,29.96,SSE,163,3.0,8.0,72,0.00,,,0.00,WeatherTracker,2013-07-23 15:25:00,
2013-07-23 10:30:00,84.6,73.3,29.95,SW,220,0.0,8.0,69,0.00,,,0.00,WeatherTracker,2013-07-23 15:30:00,
2013-07-23 10:35:00,84.7,73.4,29.95,WSW,238,0.0,6.0,69,0.00,,,0.00,WeatherTracker,2013-07-23 15:35:00,
2013-07-23 10:40:00,85.1,73.3,29.95,West,266,1.0,4.0,68,0.00,,,0.00,WeatherTracker,2013-07-23 15:40:00,
2013-07-23 10:45:00,85.3,72.6,29.95,SSE,155,2.0,6.0,66,0.00,,,0.00,WeatherTracker,2013-07-23 15:45:00,
2013-07-23 10:50:00,85.7,73.0,29.95,SE,139,3.0,6.0,66,0.00,,,0.00,WeatherTracker,2013-07-23 15:50:00,
2013-07-23 10:55:00,85.6,72.9,29.95,WSW,256,2.0,6.0,66,0.00,,,0.00,WeatherTracker,2013-07-23 15:55:00,
2013-07-23 11:00:00,85.7,72.5,29.95,SE,128,5.0,7.0,65,0.00,,,0.00,WeatherTracker,2013-07-23 16:00:00,
2013-07-23 11:05:00,86.1,72.5,29.95,NE,44,0.0,7.0,64,0.00,,,0.00,WeatherTracker,2013-07-23 16:05:00,
2013-07-23 11:10:00,86.6,72.9,29.95,WNW,290,0.0,7.0,64,0.00,,,0.00,WeatherTracker,2013-07-23 16:10:00,
2013-07-23 11:15:00,87.3,72.2,29.95,SE,145,4.0,7.0,61,0.00,,,0.00,WeatherTracker,2013-07-23 16:15:00,
2013-07-23 11:20:00,87.4,72.3,29.95,West,273,5.0,6.0,61,0.00,,,0.00,WeatherTracker,2013-07-23 16:20:00,
2013-07-23 11:26:00,87.2,73.0,29.95,NW,314,0.0,6.0,63,0.00,,,0.00,WeatherTracker,2013-07-23 16:26:00,
2013-07-23 11:31:00,88.0,72.8,29.95,WSW,244,0.0,5.0,61,0.00,,,0.00,WeatherTracker,2013-07-23 16:31:00,
2013-07-23 11:36:00,88.0,72.8,29.95,WSW,248,0.0,4.0,61,0.00,,,0.00,WeatherTracker,2013-07-23 16:36:00,
2013-07-23 11:41:00,88.1,72.9,29.95,West,280,1.0,3.0,61,0.00,,,0.00,WeatherTracker,2013-07-23 16:41:00,
2013-07-23 11:46:00,88.7,73.0,29.95,NE,40,1.0,6.0,60,0.00,,,0.00,WeatherTracker,2013-07-23 16:46:00,
2013-07-23 11:51:00,88.9,72.7,29.95,SW,224,1.0,6.0,59,0.00,,,0.00,WeatherTracker,2013-07-23 16:51:00,
2013-07-23 11:56:00,89.2,73.5,29.94,SE,128,0.0,6.0,60,0.00,,,0.00,WeatherTracker,2013-07-23 16:56:00,
2013-07-23 12:01:00,89.9,73.1,29.94,West,281,1.0,6.0,58,0.00,,,0.00,WeatherTracker,2013-07-23 17:01:00,
2013-07-23 12:06:00,90.0,71.6,29.94,ESE,103,3.0,7.0,55,0.00,,,0.00,WeatherTracker,2013-07-23 17:06:00,
2013-07-23 12:11:00,89.9,73.1,29.94,ESE,113,6.0,8.0,58,0.00,,,0.00,WeatherTracker,2013-07-23 17:11:00,
2013-07-23 12:16:00,90.2,73.4,29.94,SSE,159,6.0,8.0,58,0.00,,,0.00,WeatherTracker,2013-07-23 17:16:00,
2013-07-23 12:21:00,90.6,72.7,29.94,WSW,256,0.0,10.0,56,0.00,,,0.00,WeatherTracker,2013-07-23 17:21:00,
2013-07-23 12:26:00,91.2,72.2,29.94,ESE,121,4.0,10.0,54,0.00,,,0.00,WeatherTracker,2013-07-23 17:26:00,
2013-07-23 12:31:00,91.1,72.6,29.94,WSW,242,3.0,7.0,55,0.00,,,0.00,WeatherTracker,2013-07-23 17:31:00,
2013-07-23 12:36:00,90.8,72.9,29.94,NE,52,3.0,8.0,56,0.00,,,0.00,WeatherTracker,2013-07-23 17:36:00,
2013-07-23 12:41:00,90.6,71.1,29.94,SSE,166,2.0,8.0,53,0.00,,,0.00,WeatherTracker,2013-07-23 17:41:00,
2013-07-23 12:47:00,90.6,71.6,29.93,SW,236,1.0,9.0,54,0.00,,,0.00,WeatherTracker,2013-07-23 17:47:00,
2013-07-23 12:52:00,90.5,72.1,29.93,SW,225,0.0,9.0,55,0.00,,,0.00,WeatherTracker,2013-07-23 17:52:00,
2013-07-23 12:57:00,90.6,71.6,29.94,WSW,240,0.0,7.0,54,0.00,,,0.00,WeatherTracker,2013-07-23 17:57:00,
2013-07-23 13:02:00,90.7,71.2,29.93,South,176,1.0,7.0,53,0.00,,,0.00,WeatherTracker,2013-07-23 18:02:00,
2013-07-23 13:07:00,90.9,71.4,29.93,SW,226,1.0,5.0,53,0.00,,,0.00,WeatherTracker,2013-07-23 18:07:00,
2013-07-23 13:12:00,91.2,72.2,29.93,East,79,0.0,6.0,54,0.00,,,0.00,WeatherTracker,2013-07-23 18:12:00,
2013-07-23 13:17:00,91.2,72.2,29.93,South,188,4.0,6.0,54,0.00,,,0.00,WeatherTracker,2013-07-23 18:17:00,
2013-07-23 13:22:00,91.5,70.8,29.93,SSW,203,1.0,12.0,51,0.00,,,0.00,WeatherTracker,2013-07-23 18:22:00,
2013-07-23 13:27:00,91.5,70.8,29.93,SE,132,3.0,13.0,51,0.00,,,0.00,WeatherTracker,2013-07-23 18:27:00,
2013-07-23 13:32:00,91.5,70.8,29.92,SE,126,0.0,13.0,51,0.00,,,0.00,WeatherTracker,2013-07-23 18:32:00,
2013-07-23 13:37:00,92.2,70.8,29.92,WSW,237,3.0,6.0,50,0.00,,,0.00,WeatherTracker,2013-07-23 18:37:00,
2013-07-23 13:43:00,92.3,70.9,29.92,NNW,338,0.0,6.0,50,0.00,,,0.00,WeatherTracker,2013-07-23 18:43:00,
2013-07-23 13:48:00,92.3,72.1,29.92,NE,42,1.0,4.0,52,0.00,,,0.00,WeatherTracker,2013-07-23 18:48:00,
2013-07-23 13:53:00,92.6,70.6,29.92,SSE,166,0.0,5.0,49,0.00,,,0.00,WeatherTracker,2013-07-23 18:53:00,
2013-07-23 13:58:00,92.4,71.6,29.92,SW,224,2.0,7.0,51,0.00,,,0.00,WeatherTracker,2013-07-23 18:58:00,
2013-07-23 14:03:00,92.4,71.6,29.91,WSW,239,1.0,7.0,51,0.00,,,0.00,WeatherTracker,2013-07-23 19:03:00,
2013-07-23 14:08:00,92.5,71.1,29.91,SW,233,0.0,8.0,50,0.00,,,0.00,WeatherTracker,2013-07-23 19:08:00,
2013-07-23 14:13:00,92.4,70.4,29.91,West,271,4.0,8.0,49,0.00,,,0.00,WeatherTracker,2013-07-23 19:13:00,
2013-07-23 14:18:00,92.6,70.6,29.91,SW,235,1.0,7.0,49,0.00,,,0.00,WeatherTracker,2013-07-23 19:18:00,
2013-07-23 14:23:00,92.7,71.3,29.91,SSE,165,1.0,6.0,50,0.00,,,0.00,WeatherTracker,2013-07-23 19:23:00,
2013-07-23 14:28:00,93.0,71.0,29.91,West,269,1.0,8.0,49,0.00,,,0.00,WeatherTracker,2013-07-23 19:28:00,
2013-07-23 14:34:00,93.4,71.3,29.90,WSW,242,3.0,8.0,49,0.00,,,0.00,WeatherTracker,2013-07-23 19:34:00,
2013-07-23 14:39:00,93.6,70.9,29.90,WSW,252,3.0,4.0,48,0.00,,,0.00,WeatherTracker,2013-07-23 19:39:00,
2013-07-23 14:44:00,93.7,71.6,29.90,ESE,118,2.0,4.0,49,0.00,,,0.00,WeatherTracker,2013-07-23 19:44:00,
2013-07-23 14:49:00,94.3,71.5,29.90,WSW,253,1.0,4.0,48,0.00,,,0.00,WeatherTracker,2013-07-23 19:49:00,
2013-07-23 14:54:00,94.1,72.0,29.89,WNW,291,2.0,4.0,49,0.00,,,0.00,WeatherTracker,2013-07-23 19:54:00,
2013-07-23 14:59:00,94.0,71.3,29.89,WSW,250,4.0,8.0,48,0.00,,,0.00,WeatherTracker,2013-07-23 19:59:00,
2013-07-23 15:04:00,93.2,70.5,29.89,West,262,0.0,8.0,48,0.00,,,0.00,WeatherTracker,2013-07-23 20:04:00,
2013-07-23 15:09:00,93.1,70.5,29.89,SSW,208,0.0,4.0,48,0.00,,,0.00,WeatherTracker,2013-07-23 20:09:00,
2013-07-23 15:14:00,93.5,70.2,29.88,West,262,1.0,9.0,47,0.00,,,0.00,WeatherTracker,2013-07-23 20:14:00,
2013-07-23 15:19:00,93.5,70.2,29.88,SSW,205,2.0,9.0,47,0.00,,,0.00,WeatherTracker,2013-07-23 20:19:00,
2013-07-23 15:24:00,93.9,69.9,29.88,SW,236,3.0,6.0,46,0.00,,,0.00,WeatherTracker,2013-07-23 20:24:00,
2013-07-23 15:29:00,94.4,70.4,29.88,SW,229,0.0,5.0,46,0.00,,,0.00,WeatherTracker,2013-07-23 20:29:00,
2013-07-23 15:34:00,95.0,70.9,29.87,WNW,285,1.0,5.0,46,0.00,,,0.00,WeatherTracker,2013-07-23 20:34:00,
2013-07-23 15:39:00,95.0,70.3,29.87,WSW,242,2.0,6.0,45,0.00,,,0.00,WeatherTracker,2013-07-23 20:39:00,
2013-07-23 15:44:00,95.5,71.4,29.87,WSW,253,0.0,6.0,46,0.00,,,0.00,WeatherTracker,2013-07-23 20:44:00,
2013-07-23 15:49:00,96.2,70.7,29.86,SW,226,0.0,7.0,44,0.00,,,0.00,WeatherTracker,2013-07-23 20:49:00,
2013-07-23 15:55:00,96.7,71.1,29.86,ESE,113,4.0,7.0,44,0.00,,,0.00,WeatherTracker,2013-07-23 20:55:00,
2013-07-23 16:00:00,96.6,70.4,29.86,NNW,330,1.0,6.0,43,0.00,,,0.00,WeatherTracker,2013-07-23 21:00:00,
2013-07-23 16:05:00,96.5,69.6,29.86,East,87,1.0,6.0,42,0.00,,,0.00,WeatherTracker,2013-07-23 21:05:00,
2013-07-23 16:10:00,96.6,70.4,29.86,South,170,0.0,5.0,43,0.00,,,0.00,WeatherTracker,2013-07-23 21:10:00,
2013-07-23 16:15:00,97.1,70.8,29.86,WSW,254,1.0,5.0,43,0.00,,,0.00,WeatherTracker,2013-07-23 21:15:00,
2013-07-23 16:20:00,97.1,70.1,29.85,SSW,197,0.0,5.0,42,0.00,,,0.00,WeatherTracker,2013-07-23 21:20:00,
2013-07-23 16:25:00,97.1,69.4,29.86,SSW,194,3.0,6.0,41,0.00,,,0.00,WeatherTracker,2013-07-23 21:25:00,
2013-07-23 16:30:00,97.0,70.0,29.85,WSW,245,0.0,8.0,42,0.00,,,0.00,WeatherTracker,2013-07-23 21:30:00,
2013-07-23 16:35:00,96.9,69.2,29.85,South,172,3.0,8.0,41,0.00,,,0.00,WeatherTracker,2013-07-23 21:35:00,
2013-07-23 16:40:00,96.7,69.8,29.85,ESE,113,1.0,6.0,42,0.00,,,0.00,WeatherTracker,2013-07-23 21:40:00,
2013-07-23 16:45:00,97.2,68.8,29.85,SW,229,1.0,6.0,40,0.00,,,0.00,WeatherTracker,2013-07-23 21:45:00,
2013-07-23 16:50:00,97.1,68.0,29.85,SSE,153,2.0,7.0,39,0.00,,,0.00,WeatherTracker,2013-07-23 21:50:00,
2013-07-23 16:55:00,97.1,68.7,29.85,SE,142,1.0,7.0,40,0.00,,,0.00,WeatherTracker,2013-07-23 21:55:00,
2013-07-23 17:00:00,97.2,68.8,29.84,SW,225,1.0,7.0,40,0.00,,,0.00,WeatherTracker,2013-07-23 22:00:00,
2013-07-23 17:05:00,97.1,67.2,29.85,SE,134,0.0,7.0,38,0.00,,,0.00,WeatherTracker,2013-07-23 22:05:00,
2013-07-23 17:10:00,97.1,68.0,29.85,ESE,123,5.0,7.0,39,0.00,,,0.00,WeatherTracker,2013-07-23 22:10:00,
2013-07-23 17:15:00,96.8,68.4,29.84,North,8,0.0,11.0,40,0.00,,,0.00,WeatherTracker,2013-07-23 22:15:00,
2013-07-23 17:21:00,96.6,67.5,29.84,SSE,161,1.0,8.0,39,0.00,,,0.00,WeatherTracker,2013-07-23 22:21:00,
2013-07-23 17:27:00,96.6,69.0,29.84,West,266,0.0,8.0,41,0.00,,,0.00,WeatherTracker,2013-07-23 22:27:00,
2013-07-23 17:32:00,96.9,68.5,29.84,SW,217,3.0,8.0,40,0.00,,,0.00,WeatherTracker,2013-07-23 22:32:00,
2013-07-23 17:37:00,96.8,69.2,29.84,West,262,1.0,7.0,41,0.00,,,0.00,WeatherTracker,2013-07-23 22:37:00,
2013-07-23 17:42:00,96.7,68.3,29.83,NNE,22,2.0,8.0,40,0.00,,,0.00,WeatherTracker,2013-07-23 22:42:00,
2013-07-23 17:47:00,96.6,69.0,29.84,WSW,257,0.0,9.0,41,0.00,,,0.00,WeatherTracker,2013-07-23 22:47:00,
2013-07-23 17:52:00,96.7,66.9,29.83,SW,222,2.0,9.0,38,0.00,,,0.00,WeatherTracker,2013-07-23 22:52:00,
2013-07-23 17:57:00,96.8,67.7,29.83,SSW,210,2.0,4.0,39,0.00,,,0.00,WeatherTracker,2013-07-23 22:57:00,
2013-07-23 18:02:00,96.8,68.4,29.83,ESE,113,0.0,3.0,40,0.00,,,0.00,WeatherTracker,2013-07-23 23:02:00,
2013-07-23 18:07:00,96.6,68.3,29.83,East,89,2.0,7.0,40,0.00,,,0.00,WeatherTracker,2013-07-23 23:07:00,
2013-07-23 18:12:00,96.3,68.0,29.83,WSW,250,2.0,7.0,40,0.00,,,0.00,WeatherTracker,2013-07-23 23:12:00,
2013-07-23 18:17:00,96.1,67.1,29.83,WSW,253,1.0,6.0,39,0.00,,,0.00,WeatherTracker,2013-07-23 23:17:00,
2013-07-23 18:22:00,96.1,67.1,29.83,SE,145,0.0,7.0,39,0.00,,,0.00,WeatherTracker,2013-07-23 23:22:00,
2013-07-23 18:27:00,96.4,67.3,29.83,North,8,0.0,7.0,39,0.00,,,0.00,WeatherTracker,2013-07-23 23:27:00,
2013-07-23 18:32:00,96.4,68.1,29.82,East,93,5.0,6.0,40,0.00,,,0.00,WeatherTracker,2013-07-23 23:32:00,
2013-07-23 18:37:00,96.1,67.8,29.82,South,169,0.0,9.0,40,0.00,,,0.00,WeatherTracker,2013-07-23 23:37:00,
2013-07-23 18:42:00,95.8,67.5,29.82,South,170,0.0,9.0,40,0.00,,,0.00,WeatherTracker,2013-07-23 23:42:00,
2013-07-23 18:47:00,95.6,68.1,29.82,West,259,1.0,7.0,41,0.00,,,0.00,WeatherTracker,2013-07-23 23:47:00,
2013-07-23 18:52:00,95.3,66.4,29.82,SSE,153,1.0,5.0,39,0.00,,,0.00,WeatherTracker,2013-07-23 23:52:00,
2013-07-23 18:57:00,94.9,66.0,29.82,ESE,108,3.0,7.0,39,0.00,,,0.00,WeatherTracker,2013-07-23 23:57:00,
2013-07-23 19:02:00,94.5,66.4,29.82,West,260,2.0,7.0,40,0.00,,,0.00,WeatherTracker,2013-07-24 00:02:00,
2013-07-23 19:07:00,94.3,66.2,29.82,SSW,193,0.0,9.0,40,0.00,,,0.00,WeatherTracker,2013-07-24 00:07:00,
2013-07-23 19:13:00,94.0,65.9,29.82,ESE,120,3.0,6.0,40,0.00,,,0.00,WeatherTracker,2013-07-24 00:13:00,
2013-07-23 19:18:00,93.7,67.1,29.82,West,260,1.0,7.0,42,0.00,,,0.00,WeatherTracker,2013-07-24 00:18:00,
2013-07-23 19:23:00,93.3,66.0,29.82,SE,145,2.0,7.0,41,0.00,,,0.00,WeatherTracker,2013-07-24 00:23:00,
2013-07-23 19:29:00,93.2,66.6,29.82,West,271,0.0,5.0,42,0.00,,,0.00,WeatherTracker,2013-07-24 00:29:00,
2013-07-23 19:34:00,93.0,65.8,29.82,SE,126,1.0,5.0,41,0.00,,,0.00,WeatherTracker,2013-07-24 00:34:00,
2013-07-23 19:39:00,92.9,65.7,29.82,East,92,1.0,4.0,41,0.00,,,0.00,WeatherTracker,2013-07-24 00:39:00,
2013-07-23 19:44:00,92.7,65.5,29.82,East,99,2.0,5.0,41,0.00,,,0.00,WeatherTracker,2013-07-24 00:44:00,
2013-07-23 19:49:00,92.4,65.9,29.82,SW,214,0.0,5.0,42,0.00,,,0.00,WeatherTracker,2013-07-24 00:49:00,
2013-07-23 19:54:00,92.1,65.7,29.82,SSW,197,0.0,5.0,42,0.00,,,0.00,WeatherTracker,2013-07-24 00:54:00,
2013-07-23 19:59:00,91.8,65.4,29.82,WSW,250,1.0,7.0,42,0.00,,,0.00,WeatherTracker,2013-07-24 00:59:00,
2013-07-23 20:04:00,91.5,65.1,29.82,SSW,212,2.0,7.0,42,0.00,,,0.00,WeatherTracker,2013-07-24 01:04:00,
2013-07-23 20:09:00,91.4,65.7,29.82,SSW,205,0.0,6.0,43,0.00,,,0.00,WeatherTracker,2013-07-24 01:09:00,
2013-07-23 20:14:00,91.1,66.1,29.82,SSW,208,0.0,5.0,44,0.00,,,0.00,WeatherTracker,2013-07-24 01:14:00,
2013-07-23 20:19:00,90.8,65.2,29.82,SSE,149,1.0,4.0,43,0.00,,,0.00,WeatherTracker,2013-07-24 01:19:00,
2013-07-23 20:24:00,90.6,65.0,29.81,East,92,0.0,5.0,43,0.00,,,0.00,WeatherTracker,2013-07-24 01:24:00,
2013-07-23 20:29:00,90.3,65.4,29.81,SE,146,0.0,5.0,44,0.00,,,0.00,WeatherTracker,2013-07-24 01:29:00,
2013-07-23 20:34:00,90.1,66.5,29.81,SE,136,0.0,4.0,46,0.00,,,0.00,WeatherTracker,2013-07-24 01:34:00,
2013-07-23 20:40:00,89.7,66.1,29.81,ESE,123,0.0,4.0,46,0.00,,,0.00,WeatherTracker,2013-07-24 01:40:00,
2013-07-23 20:45:00,89.3,66.4,29.81,ESE,110,0.0,3.0,47,0.00,,,0.00,WeatherTracker,2013-07-24 01:45:00,
2013-07-23 20:50:00,89.0,66.7,29.81,SE,126,0.0,5.0,48,0.00,,,0.00,WeatherTracker,2013-07-24 01:50:00,
2013-07-23 20:55:00,88.9,67.2,29.82,East,94,0.0,5.0,49,0.00,,,0.00,WeatherTracker,2013-07-24 01:55:00,
2013-07-23 21:00:00,89.0,68.5,29.82,ENE,65,0.0,4.0,51,0.00,,,0.00,WeatherTracker,2013-07-24 02:00:00,
2013-07-23 21:05:00,88.8,70.0,29.82,SSE,165,1.0,6.0,54,0.00,,,0.00,WeatherTracker,2013-07-24 02:05:00,
2013-07-23 21:10:00,88.6,71.9,29.82,SSW,200,0.0,6.0,58,0.00,,,0.00,WeatherTracker,2013-07-24 02:10:00,
2013-07-23 21:15:00,88.3,73.1,29.82,SE,130,0.0,6.0,61,0.00,,,0.00,WeatherTracker,2013-07-24 02:15:00,
2013-07-23 21:20:00,88.1,73.9,29.82,SE,126,1.0,10.0,63,0.00,,,0.00,WeatherTracker,2013-07-24 02:20:00,
2013-07-23 21:25:00,87.9,74.2,29.82,ESE,122,1.0,10.0,64,0.00,,,0.00,WeatherTracker,2013-07-24 02:25:00,
2013-07-23 21:30:00,87.7,74.4,29.82,East,92,5.0,8.0,65,0.00,,,0.00,WeatherTracker,2013-07-24 02:30:00,
2013-07-23 21:35:00,87.4,74.6,29.82,SW,226,2.0,10.0,66,0.00,,,0.00,WeatherTracker,2013-07-24 02:35:00,
2013-07-23 21:40:00,87.1,74.8,29.83,SSE,162,1.0,10.0,67,0.00,,,0.00,WeatherTracker,2013-07-24 02:40:00,
2013-07-23 21:45:00,86.9,74.6,29.83,SE,133,0.0,7.0,67,0.00,,,0.00,WeatherTracker,2013-07-24 02:45:00,
2013-07-23 21:50:00,86.6,74.7,29.83,ENE,63,1.0,7.0,68,0.00,,,0.00,WeatherTracker,2013-07-24 02:50:00,
2013-07-23 21:55:00,86.4,75.0,29.83,SSW,208,2.0,7.0,69,0.00,,,0.00,WeatherTracker,2013-07-24 02:55:00,
2013-07-23 22:00:00,86.1,74.7,29.84,SW,232,0.0,11.0,69,0.00,,,0.00,WeatherTracker,2013-07-24 03:00:00,
2013-07-23 22:06:00,85.9,75.0,29.84,SSW,200,0.0,8.0,70,0.00,,,0.00,WeatherTracker,2013-07-24 03:06:00,
2013-07-23 22:11:00,85.6,74.7,29.84,SSW,194,3.0,7.0,70,0.00,,,0.00,WeatherTracker,2013-07-24 03:11:00,
2013-07-23 22:16:00,85.4,74.9,29.84,ESE,118,0.0,7.0,71,0.00,,,0.00,WeatherTracker,2013-07-24 03:16:00,
2013-07-23 22:21:00,85.2,74.7,29.85,ESE,115,0.0,5.0,71,0.00,,,0.00,WeatherTracker,2013-07-24 03:21:00,
2013-07-23 22:26:00,85.0,74.9,29.84,ENE,65,2.0,5.0,72,0.00,,,0.00,WeatherTracker,2013-07-24 03:26:00,
2013-07-23 22:31:00,84.8,74.7,29.85,SE,132,0.0,6.0,72,0.00,,,0.00,WeatherTracker,2013-07-24 03:31:00,
2013-07-23 22:36:00,84.6,74.6,29.85,SSW,201,0.0,8.0,72,0.00,,,0.00,WeatherTracker,2013-07-24 03:36:00,
2013-07-23 22:41:00,84.3,74.3,29.85,SSW,204,0.0,8.0,72,0.00,,,0.00,WeatherTracker,2013-07-24 03:41:00,
2013-07-23 22:46:00,84.1,74.5,29.85,East,92,0.0,9.0,73,0.00,,,0.00,WeatherTracker,2013-07-24 03:46:00,
2013-07-23 22:51:00,83.9,74.3,29.85,South,174,3.0,9.0,73,0.00,,,0.00,WeatherTracker,2013-07-24 03:51:00,
2013-07-23 22:56:00,83.7,74.1,29.85,South,179,2.0,9.0,73,0.00,,,0.00,WeatherTracker,2013-07-24 03:56:00,
2013-07-23 23:01:00,83.6,74.0,29.85,SSE,159,1.0,9.0,73,0.00,,,0.00,WeatherTracker,2013-07-24 04:01:00,
2013-07-23 23:06:00,83.3,74.1,29.86,SW,218,0.0,6.0,74,0.00,,,0.00,WeatherTracker,2013-07-24 04:06:00,
2013-07-23 23:11:00,83.0,73.8,29.86,WSW,238,0.0,5.0,74,0.00,,,0.00,WeatherTracker,2013-07-24 04:11:00,
2013-07-23 23:16:00,82.8,74.0,29.86,SW,232,2.0,8.0,75,0.00,,,0.00,WeatherTracker,2013-07-24 04:16:00,
2013-07-23 23:22:00,82.5,73.8,29.86,SSE,150,3.0,7.0,75,0.00,,,0.00,WeatherTracker,2013-07-24 04:22:00,
2013-07-23 23:27:00,82.3,74.0,29.86,ESE,110,0.0,5.0,76,0.00,,,0.00,WeatherTracker,2013-07-24 04:27:00,
2013-07-23 23:32:00,82.1,74.2,29.86,SSE,152,3.0,6.0,77,0.00,,,0.00,WeatherTracker,2013-07-24 04:32:00,
2013-07-23 23:37:00,82.0,74.1,29.86,ESE,115,1.0,6.0,77,0.00,,,0.00,WeatherTracker,2013-07-24 04:37:00,
2013-07-23 23:42:00,81.9,74.0,29.86,NW,318,0.0,6.0,77,0.00,,,0.00,WeatherTracker,2013-07-24 04:42:00,
2013-07-23 23:47:00,81.7,74.2,29.86,SE,131,1.0,6.0,78,0.00,,,0.00,WeatherTracker,2013-07-24 04:47:00,
2013-07-23 23:52:00,81.5,74.0,29.86,ENE,76,0.0,7.0,78,0.00,,,0.00,WeatherTracker,2013-07-24 04:52:00,
2013-07-23 23:57:00,81.4,74.2,29.87,SE,135,0.0,7.0,79,0.00,,,0.00,WeatherTracker,2013-07-24 04:57:00,